Flag for China Weather past 2 weeks in Foochow, Fujian, China

Now
79 °F

Fog.


Feels Like: 82 °F
Forecast: 70 / 81 °F
Wind: 13 mph from South

Location: Fuzhou Airport

Current Time: May 30, 2015 at 11:32:57 AM

Latest Report: May 30, 2015 at 11:00 AM


Visibility: 3 mi

Pressure: 29.71 "Hg

Humidity: 89%

Dew point: 75 °F

Location of FoochowLocation

Historic Weather in Foochow — Graph

°F

Foochow temperature yesterday

Maximum temperature yesterday: 86 °F (at 1:00 PM)
Minimum temperature yesterday: 75 °F (at 2:00 AM)
Average temperature yesterday: 80 °F

Past Weeks' High & Low Weather Summary

 TemperatureHumidityPressure
High86 °F (May 15, 3:00 PM)100% (May 16, 5:00 PM)30.04 "Hg (May 16, 5:00 PM)
Low59 °F (May 21, 11:00 PM)56% (May 21, 8:00 AM)29.59 "Hg (May 28, 3:00 PM)
Average73 °F87%29.78 "Hg
* Reported May 15 10:00 AM — May 30 10:00 AM, Foochow, Weather by CustomWeather, © 2015

Note: Actual official high and low records may vary slightly from our data, if they occured in-between our weather recording intervals... More about our weather records

Advertising

Foochow weather history for previous 24 hours

 ConditionsComfort  
Time TempWeatherWind HumidityBarometerVisibility
10:00 AM
Sat, May 30
82 °FFog.8 mph84%29.74 "Hg3 mi
9:00 AM81 °FFog.13 mph89%29.71 "Hg2 mi
8:00 AM81 °FFog.8 mph89%29.71 "Hg3 mi
7:00 AM79 °FFog.10 mph94%29.68 "Hg3 mi
6:00 AM79 °FFog.13 mph94%29.68 "Hg3 mi
5:00 AM79 °FFog.8 mph94%29.65 "Hg3 mi
4:00 AM79 °FFog.10 mph94%29.65 "Hg2 mi
3:00 AM79 °FFog.10 mph94%29.65 "Hg2 mi
2:00 AM79 °FFog.10 mph94%29.65 "Hg3 mi
1:00 AM79 °FFog.15 mph94%29.68 "Hg3 mi
12:00 AM79 °FPassing clouds.13 mph89%29.68 "Hg4 mi
11:00 PM
Fri, May 29
79 °FPassing clouds.13 mph94%29.71 "Hg4 mi
10:00 PM79 °FPassing clouds.10 mph89%29.68 "Hg5 mi
9:00 PM79 °FPassing clouds.13 mph94%29.68 "Hg5 mi
8:00 PM81 °FPassing clouds.13 mph89%29.65 "Hg5 mi
7:00 PM79 °FPassing clouds.15 mph94%29.65 "Hg5 mi
6:00 PM81 °FPassing clouds.15 mph89%29.62 "Hg6 mi
5:00 PM82 °FClear.17 mph84%29.62 "Hg6 mi
4:00 PM84 °FClear.17 mph79%29.62 "Hg6 mi
3:00 PM86 °FClear.20 mph79%29.62 "Hg6 mi
2:00 PM84 °FClear.20 mph79%29.62 "Hg5 mi
1:00 PM86 °FClear.17 mph75%29.65 "Hg4 mi
12:00 PM84 °FPassing clouds.15 mph84%29.68 "Hg4 mi
11:00 AM84 °FFog.15 mph84%29.68 "Hg2 mi
Weather by CustomWeather, © 2015

See weather overviewHow to use our weather pages